Location: Kirtland Hills
(41.6239°N, 81.3071°W)
Time: 08:49:57
(UTC+00:00)

Feng Yun 1-1 Rocket - Pass Details

Date: 29 October 2020
Orbit: 829 x 934 km, 99.2° (Epoch: 27 November)

Event Time Altitude Azimuth Distance (km) Brightness Sun altitude
Rises 23:27:42 0° 165° (SSE) 3,554 7.4 -12.6°
Reaches altitude 10° 23:30:06 10° 166° (SSE) 2,623 6.7 -13.1°
Maximum altitude 23:36:00 86° 254° (WSW) 942 4.5 -14.2°
Drops below altitude 10° 23:41:58 10° 345° (NNW) 2,648 6.9 -15.3°
Sets 23:44:24 0° 346° (NNW) 3,591 7.6 -15.7°
